Weather History for PAJN - December, 2013

Change the Weather History Date:

Monday, December 23, 2013

  Actual Average Record
Temperature  
Mean Temperature 37 °F 29 °F  
Max Temperature 40 °F 34 °F 54 °F (1999)
Min Temperature 34 °F 25 °F -3 °F (1971)
Degree Days  
Heating Degree Days 28 36  
Month to date heating degree days 906 800  
Since 1 July heating degree days 3379 3431  
Moisture  
Dew Point 32 °F    
Average Humidity 88    
Maximum Humidity 100    
Minimum Humidity 76    
Precipitation  
Precipitation 0.12 in 0.18 in 1.18 in (1992)
Month to date precipitation 5.75 4.47  
Year to date precipitation 70.97 60.90  
Snow  
Snow T in 0.50 in 9.90 in (1992)
Month to date snowfall 27.7 11.2  
Since 1 July snowfall 46.9 25.1  
Snow Depth 7.00 in    
Sea Level Pressure  
Sea Level Pressure 29.83 in    
Wind  
Wind Speed 7 mph (East)    
Max Wind Speed 16 mph    
Max Gust Speed 23 mph    
Visibility 10 miles    
Events Rain , Snow    
T = Trace of Precipitation, MM = Missing Value Source: NWS Daily Summary

Daily Weather History Graph

Daily Weather History Graph

Search for Another Location

Airport or City:

Trip Planner

Search our weather history database for the weather conditions in past years. The results will help you decide how hot, cold, wet, or windy it might be!

Date:

Astronomy

Dec. 23, 2013 Rise Set
Actual Time 8:46 AM AKST 3:08 PM AKST
Civil Twilight 7:53 AM AKST 4:01 PM AKST
Nautical Twilight 7:00 AM AKST 4:54 PM AKST
Astronomical Twilight 6:11 AM AKST 5:43 PM AKST
Moon 10:51 PM AKST (12/23) 10:56 AM AKST (12/23)
Length of Visible Light 8h 07m
Length of Day
6h 22m
Waning Gibbous, 66% of the Moon is Illuminated
Dec 23
Waning Gibbous
Dec 25
Last Quarter
Jan 1
New
Jan 7
First Quarter
Jan 15
Full

Hourly Weather History & Observations

Time (AKST) Temp. Windchill Dew Point Humidity Pressure Visibility Wind Dir Wind Speed Gust Speed Precip Events Conditions
12:53 AM 36.0 °F 28.0 °F 34.0 °F 93% 29.57 in 10.0 mi East 11.5 mph - 0.02 in Rain Light Rain
1:53 AM 36.0 °F 28.0 °F 34.0 °F 93% 29.59 in 10.0 mi East 11.5 mph - 0.04 in Rain Light Rain
2:53 AM 36.0 °F 29.0 °F 34.0 °F 93% 29.62 in 10.0 mi East 9.2 mph - 0.04 in Rain Light Rain
3:09 AM 36.0 °F 30.3 °F 34.0 °F 93% 29.63 in 10.0 mi ENE 6.9 mph - 0.00 in Rain , Snow Light Rain
3:53 AM 36.0 °F 29.0 °F 34.0 °F 93% 29.64 in 10.0 mi East 9.2 mph - 0.01 in Rain Light Rain
4:53 AM 37.0 °F 31.0 °F 35.1 °F 93% 29.67 in 10.0 mi ENE 8.1 mph - 0.00 in Rain Light Rain
5:53 AM 37.0 °F 33.3 °F 35.1 °F 93% 29.69 in 10.0 mi ENE 4.6 mph - 0.00 in Rain Light Rain
6:53 AM 37.0 °F 32.4 °F 34.0 °F 89% 29.73 in 10.0 mi East 5.8 mph - 0.00 in   Overcast
7:53 AM 37.0 °F 31.6 °F 34.0 °F 89% 29.75 in 10.0 mi East 6.9 mph - N/A   Overcast
8:53 AM 37.0 °F 30.4 °F 34.0 °F 89% 29.79 in 10.0 mi ENE 9.2 mph - N/A   Overcast
9:53 AM 36.0 °F 31.1 °F 34.0 °F 93% 29.81 in 10.0 mi ENE 5.8 mph - N/A   Mostly Cloudy
10:53 AM 37.0 °F 31.6 °F 34.0 °F 89% 29.83 in 10.0 mi NE 6.9 mph - N/A   Mostly Cloudy
11:53 AM 36.0 °F 32.1 °F 33.1 °F 89% 29.85 in 10.0 mi East 4.6 mph - N/A   Overcast
12:53 PM 36.0 °F 33.3 °F 34.0 °F 93% 29.86 in 10.0 mi Variable 3.5 mph - N/A   Mostly Cloudy
1:53 PM 37.9 °F 32.7 °F 30.9 °F 76% 29.88 in 10.0 mi Variable 6.9 mph - 0.00 in Rain Light Rain
2:53 PM 39.0 °F 33.4 °F 30.9 °F 73% 29.90 in 10.0 mi South 8.1 mph - 0.01 in   Overcast
3:53 PM 37.9 °F 32.7 °F 30.0 °F 73% 29.92 in 10.0 mi South 6.9 mph - 0.00 in Rain Light Rain
4:53 PM 39.0 °F 34.8 °F 28.0 °F 65% 29.93 in 10.0 mi Variable 5.8 mph - 0.00 in Rain Light Rain
5:53 PM 36.0 °F 28.5 °F 30.9 °F 82% 29.95 in 10.0 mi ESE 10.4 mph - 0.00 in Rain Light Rain
6:53 PM 37.0 °F 33.3 °F 30.0 °F 76% 29.97 in 10.0 mi ENE 4.6 mph - 0.00 in Rain Light Rain
7:53 PM 37.0 °F 31.0 °F 30.9 °F 79% 30.00 in 10.0 mi ESE 8.1 mph - 0.00 in Rain Light Rain
8:53 PM 37.0 °F 33.3 °F 30.9 °F 79% 30.02 in 10.0 mi Variable 4.6 mph - 0.00 in Rain Light Rain
9:53 PM 37.9 °F 32.1 °F 30.0 °F 73% 30.04 in 10.0 mi ENE 8.1 mph - 0.00 in   Overcast
10:53 PM 37.0 °F 28.9 °F 30.0 °F 76% 30.07 in 10.0 mi SE 12.7 mph - 0.00 in Rain , Snow Light Rain
11:53 PM 36.0 °F 30.3 °F 30.9 °F 82% 30.10 in 10.0 mi ENE 6.9 mph - 0.00 in Rain , Snow Light Snow